Lapse_Rate
5.2 5.3 4.7 5.4 5.0 4.7 4.9 4.5 4.6 5.1 5.2 5.1 5.4 5.6 5.7 5.7 6.0 6.5 6.6 6.9 6.9 7.3 7.2 7.3 7.7 8.0 7.7 7.2 7.0 7.3 7.6 7.4 7.1 7.0 6.6 6.8 6.0 5.8 4.8 5.2 5.7 5.6 5.6 5.7
5.4 5.9 5.6 5.4 5.2 5.2 5.0 4.7 5.1 4.9 4.8 4.7 4.6 5.0 5.6 5.6 5.6 5.8 6.2 6.3 6.5 6.7 6.9 7.0 7.7 7.4 6.9 6.6 6.7 7.1 7.4 7.3 7.1 7.2 6.8 6.6 6.5 6.0 5.8 5.1 5.8 6.1 5.5 5.3
5.5 5.7 6.4 5.9 5.4 5.6 5.0 5.1 4.7 4.2 4.2 4.4 4.6 4.7 5.0 5.1 5.2 5.2 5.3 5.8 6.1 6.3 6.3 6.5 7.2 7.9 7.2 6.4 6.3 6.7 7.1 6.9 6.8 7.0 6.9 6.7 6.8 6.2 5.2 5.5 5.6 5.1 5.4 5.0
5.9 6.3 4.7 6.5 6.0 6.3 5.7 5.4 4.9 4.8 4.5 4.1 4.2 4.1 3.9 4.5 4.6 4.8 4.7 5.0 5.4 5.8 5.5 6.0 6.5 6.8 6.4 6.9 7.4 7.3 7.4 7.2 6.8 6.9 6.8 6.8 6.6 6.6 6.6 6.2 5.4 5.5 5.4 5.1
6.8 7.0 7.5 7.4 6.7 6.4 6.1 5.6 5.2 5.1 5.1 4.6 4.7 4.4 4.2 3.8 3.8 4.0 4.3 4.6 4.9 5.0 5.0 5.6 6.3 6.5 6.9 6.9 6.6 7.1 6.9 6.7 6.9 6.6 6.6 6.5 6.4 6.5 6.3 6.6 6.0 6.1 5.8 5.6
7.4 7.8 7.0 6.3 7.3 7.4 7.4 6.2 5.2 5.3 5.3 5.3 5.2 4.9 4.5 4.2 3.7 3.4 3.7 4.1 4.6 5.1 5.2 5.1 5.3 5.7 6.0 6.4 6.4 6.2 6.6 6.7 6.6 6.3 6.3 6.4 6.4 6.4 6.1 6.2 6.1 6.2 6.5 6.3
8.1 8.3 7.9 7.0 7.3 8.1 7.6 6.4 5.4 4.9 4.7 5.0 5.0 4.7 4.4 4.3 4.1 3.9 3.4 3.1 3.7 4.7 4.9 5.0 5.2 5.1 4.9 5.1 5.4 5.8 6.2 6.1 6.1 6.1 6.5 6.4 6.3 6.2 6.2 6.2 6.3 6.2 6.2 6.3
7.7 8.0 7.7 7.1 7.5 7.3 6.6 6.5 6.3 5.9 5.4 4.6 5.4 5.6 4.7 4.5 4.4 4.5 4.3 3.9 3.6 3.7 3.7 3.6 3.9 3.6 4.7 4.8 5.1 5.0 5.1 5.4 5.6 6.0 6.2 6.0 5.8 5.7 5.6 5.7 5.9 6.1 6.2 6.4
7.5 7.4 7.4 6.9 6.7 6.7 6.6 6.5 6.5 6.2 6.0 5.4 4.9 5.6 5.4 5.1 4.7 4.6 4.5 4.6 4.3 3.5 3.2 3.4 3.1 3.3 3.6 4.1 5.0 4.8 4.8 5.0 5.1 5.4 5.7 5.7 5.5 5.5 5.5 5.5 5.6 5.9 6.2 6.4
7.8 8.0 7.4 7.4 7.1 6.8 6.7 6.6 6.7 6.2 6.1 6.2 5.9 5.7 5.7 5.5 5.6 5.5 4.5 4.0 4.2 4.1 4.2 4.1 4.1 3.6 3.6 3.7 3.9 4.2 4.6 4.7 4.9 5.1 5.2 5.7 5.8 5.7 5.6 5.7 5.8 5.9 5.9 6.2
8.5 7.9 7.6 7.5 7.4 7.1 6.9 6.9 6.9 6.8 6.6 6.6 6.6 6.3 5.8 5.7 5.9 5.8 5.5 4.6 3.8 3.9 4.0 3.6 3.8 3.8 4.0 3.5 3.0 3.4 3.7 4.2 4.5 4.9 5.0 5.3 5.6 5.9 5.9 5.9 6.0 6.1 6.1 6.1
8.5 8.4 8.0 7.6 7.4 7.3 6.9 6.7 6.7 6.6 6.7 6.8 6.7 6.7 6.4 6.2 6.0 6.0 5.8 5.3 5.0 4.6 4.3 4.0 3.9 3.7 3.5 3.8 4.0 3.5 3.5 3.5 3.9 4.2 4.3 4.6 5.1 5.5 5.8 5.8 5.8 5.8 6.0 6.2
8.6 8.5 8.6 8.4 7.7 7.4 7.3 7.0 6.7 6.6 6.5 6.5 6.2 6.5 6.5 6.3 6.0 6.0 6.2 5.9 5.3 5.3 5.1 4.6 4.3 4.3 4.2 4.1 3.8 3.6 3.5 3.9 4.0 4.2 4.4 4.3 4.2 4.5 5.1 5.5 5.9 6.0 5.9 5.9
8.4 8.6 8.8 8.7 8.5 8.2 7.9 7.6 7.2 6.9 6.6 6.5 6.5 6.3 6.2 6.4 6.0 5.7 6.1 5.9 5.7 5.5 5.4 5.3 5.2 4.6 4.5 4.5 4.5 4.5 4.4 4.4 4.1 4.0 4.4 4.4 4.5 4.6 4.6 4.6 5.0 5.3 5.5 5.5
8.5 8.5 8.4 8.4 8.5 8.5 8.4 8.2 7.9 7.5 7.0 6.8 6.6 6.4 6.3 6.3 6.5 6.0 5.9 6.1 6.0 5.7 5.7 5.6 5.3 5.2 4.9 4.5 4.6 4.6 4.7 5.0 5.0 4.9 4.6 4.3 4.6 4.7 4.7 4.7 4.6 4.7 5.0 5.3
8.1 8.2 8.3 8.2 8.2 8.3 8.4 8.4 8.2 7.9 7.6 7.0 6.6 6.5 6.4 6.3 6.3 6.5 6.3 6.2 6.0 5.8 5.6 5.5 5.5 5.6 5.8 5.1 4.6 4.3 4.1 4.4 4.6 4.9 4.9 5.0 4.9 4.9 5.1 5.1 4.9 4.6 4.7 5.0
7.4 7.1 6.9 6.8 7.0 7.2 7.3 7.4 7.5 7.4 7.4 7.3 7.1 6.7 6.4 6.1 6.2 6.3 6.5 6.5 6.3 5.6 5.5 5.6 5.6 5.7 5.5 5.5 5.2 4.7 4.3 4.1 4.1 4.1 4.4 4.8 4.8 4.6 4.5 4.6 4.7 4.6 4.7 4.7
6.6 6.4 6.1 5.8 5.7 5.7 5.9 6.2 6.4 6.7 6.9 7.1 7.0 6.8 6.6 6.1 5.8 6.0 6.2 6.4 6.5 6.3 5.6 5.2 5.1 5.2 5.6 5.7 5.5 5.3 5.2 4.9 4.6 4.1 4.2 4.1 4.2 3.8 3.8 3.7 3.7 3.8 3.9 4.1
6.2 5.9 5.7 5.6 5.5 5.4 5.6 5.7 5.9 6.2 6.5 6.5 6.5 6.6 6.6 6.4 6.4 6.1 5.8 5.7 6.3 6.4 6.4 6.1 5.7 5.3 5.0 5.1 5.2 5.3 5.4 5.3 5.1 4.7 4.5 4.2 4.0 3.7 3.4 3.4 3.4 3.3 3.2 3.4
5.7 5.5 5.4 5.3 5.6 5.5 5.7 5.9 5.9 6.0 6.1 6.0 6.1 6.1 6.2 6.3 6.6 6.4 6.6 6.2 5.9 5.9 6.5 6.6 6.5 6.2 5.8 5.4 5.1 5.0 5.0 5.0 5.3 5.4 5.1 4.7 4.3 4.1 4.0 4.0 4.0 3.6 3.4 3.5
5.5 5.4 5.5 5.3 5.6 5.9 5.8 5.8 5.7 5.9 6.0 6.0 5.8 5.9 5.8 5.8 5.9 6.1 6.7 6.6 6.6 6.6 6.3 6.0 6.2 6.4 6.4 6.1 5.9 5.6 5.4 5.1 4.8 5.0 5.0 5.0 5.1 4.8 4.4 4.2 4.1 4.0 3.8 3.6
5.5 5.6 5.6 5.7 5.8 6.1 6.0 5.9 5.8 5.7 5.7 5.7 5.7 5.6 5.5 5.6 5.6 5.7 6.2 6.7 7.3 7.3 7.2 7.0 6.9 6.5 6.2 6.3 6.5 6.3 6.0 5.9 5.6 5.1 4.6 4.9 5.0 5.1 4.8 4.6 4.3 4.0 4.0 4.0
5.6 5.8 5.8 5.9 6.0 6.0 6.1 6.0 5.9 5.8 5.7 5.7 5.5 5.4 5.4 5.5 5.6 5.5 5.8 7.0 7.5 7.8 7.8 7.5 7.1 7.0 6.8 6.8 6.6 6.3 6.1 6.1 6.1 5.7 5.5 5.3 5.2 5.1 5.2 5.2 5.0 4.7 4.4 4.4
5.7 5.9 6.0 6.0 6.0 5.9 6.0 6.0 6.0 5.9 5.8 5.7 5.6 5.5 5.2 5.3 5.6 5.4 5.5 6.2 6.7 7.2 7.6 7.8 7.7 7.4 7.3 6.8 6.8 6.7 6.6 6.4 6.3 6.1 6.0 5.8 5.6 5.4 5.2 5.2 5.2 5.2 5.2 5.0
5.8 6.0 6.0 5.9 5.8 5.9 5.9 5.9 6.0 6.0 6.2 6.4 6.3 5.9 5.7 5.4 5.4 5.7 5.5 5.8 6.1 6.4 6.7 7.0 7.2 7.0 6.9 7.0 6.9 6.9 6.9 7.0 7.1 6.9 6.7 6.5 6.4 6.1 5.7 5.5 5.4 5.2 5.1 5.0
5.9 6.0 5.9 5.7 5.6 5.7 5.9 5.9 6.3 6.6 6.6 6.9 6.9 6.6 6.3 5.9 5.7 5.7 5.8 5.7 5.8 5.9 6.1 6.5 6.8 6.8 6.8 6.9 7.0 7.2 7.2 7.3 7.3 7.3 7.3 7.3 7.2 7.0 6.6 6.3 5.8 5.5 5.5 5.3
6.1 5.8 5.5 5.7 5.7 5.9 6.2 6.5 6.8 7.0 7.0 7.0 7.0 7.0 7.0 6.6 6.1 6.0 6.0 6.0 6.0 6.1 6.2 6.3 6.5 6.6 6.6 6.6 6.7 6.8 6.9 6.9 7.0 7.1 7.3 7.4 7.3 7.1 7.0 6.8 6.6 6.4 6.2 6.1
Wind_Speed
6 15 10 15 17 14 6 4 5 8 10 14 15 13 11 10 12 16 17 16 15 14 12 9 7 8 9 8 5 5 9 9 10 10 10 11 11 11 9 6 7 6 7 7
9 11 10 14 12 14 8 8 7 8 7 12 16 16 18 16 14 16 15 15 16 14 13 12 11 9 10 10 8 5 6 7 9 10 8 7 7 9 10 11 10 10 10 10
5 10 14 3 10 13 9 14 11 9 7 11 13 15 18 17 15 13 14 15 15 15 14 12 11 11 11 12 8 9 8 5 5 5 6 5 6 8 7 7 8 8 9 10
5 7 3 1 11 12 13 22 21 20 9 10 10 12 11 18 14 14 13 13 13 13 15 14 13 11 11 10 10 10 10 8 7 6 6 6 6 6 6 5 7 8 8 8
1 2 8 4 11 9 9 7 19 19 28 4 5 6 9 18 15 16 13 11 9 11 11 11 15 12 12 12 12 12 11 10 6 6 6 6 6 6 6 5 5 4 6 8
6 3 2 10 16 19 12 3 18 18 22 23 10 1 3 16 14 15 15 15 13 10 10 11 10 12 13 12 11 9 8 8 8 8 8 6 5 5 3 4 4 5 5 4
6 4 5 13 16 16 4 6 11 12 11 18 13 5 7 13 18 14 14 16 16 13 9 8 8 10 11 12 11 6 8 9 9 9 8 6 5 4 3 4 4 4 5 5
6 4 1 18 10 7 2 5 4 6 8 7 10 16 13 11 13 17 17 17 16 13 13 10 9 9 9 10 6 8 6 8 8 8 7 6 6 5 5 4 4 4 4 4
4 6 11 9 7 4 3 5 2 2 3 5 6 10 15 14 11 7 10 12 13 10 9 11 9 10 11 6 6 7 7 7 6 7 7 6 6 5 4 4 3 3 3 3
8 4 8 8 6 6 5 6 8 5 5 3 5 5 6 10 12 10 5 9 7 5 7 6 5 6 6 7 6 7 7 5 5 5 5 5 4 4 4 4 3 3 3 3
7 7 10 4 9 8 10 11 9 10 8 7 6 5 4 4 7 13 12 8 5 5 6 6 4 4 4 5 7 6 5 4 5 4 5 4 4 3 3 2 2 2 2 2
4 11 6 7 8 9 7 7 8 6 7 10 9 8 7 6 3 3 13 8 9 4 3 4 4 4 1 3 6 6 5 3 3 2 2 3 3 3 7 6 4 5 4 3
4 10 5 7 6 6 6 7 7 7 7 6 6 6 7 8 6 6 5 10 5 8 8 4 5 4 5 3 2 4 5 5 4 4 4 3 2 2 2 4 6 5 5 4
6 6 6 6 6 11 8 9 8 7 6 5 5 8 7 5 6 8 9 7 6 5 6 8 6 6 6 6 5 5 4 6 4 4 4 4 4 4 3 1 1 1 3 2
7 6 6 8 8 9 9 10 12 8 7 8 7 6 8 8 7 7 7 9 7 7 7 6 6 8 6 5 6 6 5 4 4 4 4 5 4 4 4 4 3 2 1 1
8 7 7 8 11 13 13 13 13 14 11 9 8 9 9 8 7 7 7 7 5 7 8 7 7 7 7 5 6 5 5 6 5 4 4 4 3 3 4 4 4 4 4 3
9 14 14 15 17 15 17 15 14 15 14 13 13 12 11 12 9 9 9 6 6 6 7 7 9 9 7 6 6 4 4 4 6 4 4 5 4 4 4 4 4 4 4 4
8 12 14 17 17 17 18 19 18 17 16 17 17 17 15 14 14 13 11 9 6 7 7 8 7 7 8 7 6 4 4 5 5 5 5 5 5 5 5 5 5 4 3 3
14 16 17 15 18 18 21 19 17 18 18 18 18 17 16 16 16 15 13 11 8 10 11 9 10 7 8 8 6 4 5 5 5 5 6 6 5 5 5 6 6 6 5 4
16 14 17 19 15 19 19 18 19 18 17 16 16 15 16 16 13 12 12 14 14 10 12 11 11 10 9 8 8 5 6 6 6 6 5 6 6 6 6 7 6 5 5 5
15 17 19 19 16 19 16 18 17 17 17 16 17 17 16 15 14 12 12 11 16 14 14 16 11 9 8 8 6 5 5 5 5 4 4 4 4 4 4 4 4 5 5 5
16 17 18 18 16 18 17 16 16 16 16 16 16 14 15 16 15 14 15 15 12 14 10 9 8 11 9 10 6 6 6 6 5 5 4 5 5 5 6 6 6 7 6 5
15 17 18 18 17 17 18 16 15 15 15 14 15 14 13 11 10 11 10 12 10 13 10 9 10 12 13 8 6 6 6 6 6 6 6 7 7 7 7 7 8 7 6 6
16 18 18 17 16 16 17 16 15 16 15 15 15 14 12 8 10 9 10 14 11 11 11 10 10 13 15 7 6 6 6 7 7 7 7 8 7 7 7 7 8 7 7 8
17 17 16 15 15 12 16 16 16 15 15 14 13 12 13 9 9 8 7 9 12 11 10 12 13 13 9 6 6 7 7 7 8 7 8 7 8 8 8 8 9 9 8 9
16 11 12 15 12 11 11 11 11 12 12 11 11 10 9 8 8 8 7 8 8 8 7 8 6 6 7 7 7 9 9 8 8 8 9 9 9 9 9 9 9 9 10 10
12 13 11 11 10 11 11 12 12 12 13 11 11 9 8 7 8 8 9 7 6 6 6 5 6 7 7 7 7 8 8 8 9 9 8 8 9 9 9 9 10 10 10 10
Wind_Direction
264 293 300 292 324 329 320 307 295 331 351 349 348 21 20 24 39 49 47 43 38 29 16 40 63 93 94 88 98 122 122 133 159 158 152 149 147 142 135 192 184 194 171 163
299 302 303 313 343 333 14 3 314 28 32 358 5 14 20 16 29 42 43 49 48 37 24 25 34 53 82 83 81 133 128 155 164 150 136 138 150 158 160 171 164 168 179 148
294 328 314 338 352 344 64 32 1 8 346 5 10 9 19 8 15 28 39 47 49 47 41 27 38 45 46 66 75 83 94 109 110 112 132 137 134 136 155 162 170 187 162 174
286 307 360 287 23 16 65 36 17 7 350 19 7 359 22 16 12 10 22 30 48 54 53 40 40 41 59 57 66 68 61 68 74 81 95 98 110 128 107 153 155 152 171 164
179 276 277 17 2 340 350 24 16 4 357 11 19 351 12 6 14 22 6 8 32 45 59 51 45 34 50 49 53 54 42 39 40 64 67 81 94 95 94 122 123 131 149 155
298 274 273 353 334 318 297 119 8 13 8 357 345 25 28 342 355 14 16 17 12 21 33 44 45 45 46 52 60 67 68 57 40 55 62 61 72 91 87 120 119 143 143 140
271 229 104 336 330 317 67 332 341 10 29 8 352 356 329 357 355 2 12 10 11 23 23 14 27 51 46 49 44 42 68 65 54 54 54 49 57 61 88 97 112 117 128 140
336 345 38 353 1 30 279 303 318 2 5 21 11 357 351 360 1 353 353 356 360 7 16 7 25 42 39 36 14 52 63 68 65 62 65 52 52 50 60 82 94 99 113 107
294 307 310 264 277 282 272 263 249 279 281 322 14 20 358 344 342 359 349 344 341 345 351 6 12 53 46 5 34 42 54 68 65 68 71 67 56 40 42 51 68 85 103 106
322 351 350 315 336 329 311 316 311 229 226 274 310 21 64 343 332 327 303 254 248 231 315 327 39 19 55 51 47 51 44 43 71 80 61 62 69 57 59 49 41 49 67 77
294 312 329 322 319 305 309 313 308 312 298 276 246 267 282 295 359 329 329 319 275 237 263 263 275 137 96 74 77 72 63 46 43 47 64 61 48 50 56 55 85 77 55 55
296 298 294 290 299 310 327 325 327 341 336 333 330 303 283 278 268 319 314 338 330 319 22 356 315 296 247 126 116 117 109 101 109 94 61 70 80 41 23 22 47 50 81 83
280 310 285 291 299 333 335 329 321 334 327 336 334 350 345 310 279 265 245 295 324 324 304 284 298 308 282 269 144 147 142 140 132 129 127 130 102 97 88 349 29 32 15 20
320 327 324 330 314 314 310 306 316 306 305 307 307 319 326 324 338 320 294 274 280 314 316 305 294 282 286 283 262 210 189 169 156 161 154 151 147 146 147 163 208 302 40 20
323 323 280 290 306 319 321 322 317 304 295 303 307 299 314 318 318 308 316 327 328 316 310 311 295 293 292 287 270 247 210 208 196 177 164 154 146 140 139 143 165 207 290 354
304 305 305 315 309 307 305 304 299 296 293 273 273 283 284 276 281 289 291 298 307 308 306 304 295 274 291 299 278 264 243 230 197 189 182 176 169 168 166 170 174 190 200 220
314 315 313 304 304 300 295 290 286 284 287 288 282 272 275 278 277 277 276 268 264 265 271 277 279 286 276 270 257 257 239 243 217 199 190 194 190 200 212 200 213 217 224 218
263 278 282 287 300 301 302 296 293 287 285 287 287 283 270 262 262 269 267 267 269 274 271 271 264 264 280 275 260 237 230 235 204 216 207 198 197 197 197 203 213 212 247 273
283 287 291 292 297 295 299 292 290 284 283 281 280 276 274 269 262 257 256 262 255 264 276 275 272 265 257 264 263 243 229 222 222 223 206 205 202 198 198 199 205 208 213 221
291 283 283 290 282 294 293 293 291 285 280 276 274 272 270 266 257 255 255 259 260 260 263 263 262 263 265 249 252 242 230 217 219 218 213 208 210 212 208 207 206 206 204 214
297 301 303 303 304 301 293 292 289 285 279 278 271 269 268 267 259 250 250 253 256 252 251 254 253 253 253 250 225 221 206 213 211 197 194 200 200 210 200 207 209 206 222 222
306 307 308 306 310 302 299 297 292 288 284 283 274 264 266 265 261 256 249 249 255 248 239 241 242 241 241 231 229 213 222 228 220 218 207 203 192 213 222 212 219 224 217 215
308 309 308 310 309 302 300 297 291 289 282 281 282 273 260 260 259 260 260 245 231 241 244 245 235 232 236 232 217 213 216 217 218 216 218 223 216 218 222 217 223 222 216 221
310 311 311 309 306 303 302 303 304 298 290 283 278 278 272 266 264 252 249 254 241 231 235 237 236 230 233 229 214 216 221 226 226 226 227 219 217 217 218 217 220 222 222 223
312 311 310 311 308 303 303 301 300 296 294 291 282 281 276 265 262 267 246 245 244 239 244 244 233 230 235 221 216 219 222 221 224 222 223 223 226 222 223 220 222 226 226 228
312 312 311 306 302 302 300 300 298 296 292 286 280 277 271 266 268 267 265 253 245 238 235 240 227 225 228 223 221 226 228 231 230 228 229 230 229 228 230 232 232 232 232 235
315 310 308 309 309 311 307 304 302 303 300 290 279 279 276 266 259 259 261 259 247 245 239 229 228 230 232 228 226 231 234 238 234 231 230 231 235 236 237 236 237 239 240 243